IRIDIUM 180 (43922 NORAD) Tracking and Keplerian Element Data

This shows tracking and keplerian element data for the satellite.

Feedback or suggestion? Click here.




ElementValue
Catalog43922
NameIRIDIUM 180
Epoch Orbit103
Epoch Day18.63815505
Epoch Year2019
RAAN44.6391
Inclination86.6805
Eccentricity0.0011212
Argument of Perigee189.2587
Mean Anonmoly170.8379
Mean Motion14.83222364
Decay Rate-1.2E-06
L11 43922U 19002A 19018.63815505 -.00000120 00000-0 -18034-4 0 9999
L22 43922 86.6805 44.6391 0011212 189.2587 170.8379 14.83222364 1033

Live tracking and technical data element details for IRIDIUM 180 (NORAD 43922). IRIDIUM 180 can be tracked NOW for your location showing map with azimuth and elevation plus other details from your city location.

Track the satellite on the map from your city or location and see movement details for azimuth, elevation, latitude, longitude, range, height, and movement on the map or in text.







IsCatalogInMostPopularTable: catalog: 43922, numindb: 19
Update: records affected: 1



GetName: 43922 IRIDIUM 180

Hit Count: updated at: Wed, 23 Jan 2019 03:11:11 GMT